Flag Weather past 2 weeks in Gjøvik, Norway

Now
36 °F

Chilly.


Feels Like: 36 °F
Forecast: 26 / 40 °F
Wind: 1 mph from North

Location: Lillehammer-Saetherengen

Current Time: Oct 30, 2014 at 2:31:32 PM

Latest Report: Oct 30, 2014 at 1:00 PM


Visibility: N/A

Pressure: 30.17 "Hg

Humidity: 75%

Dew point: 29 °F

Location of GjøvikLocation

Historic Weather in Gjøvik — Graph

°F

Gjøvik temperature yesterday

Maximum temperature yesterday: 53 °F (at 12:00 AM)
Minimum temperature yesterday: 33 °F (at 10:00 PM)
Average temperature yesterday: 44 °F

Past Weeks' High & Low Weather Summary

 TemperatureHumidityPressure
High60 °F (Oct 28, 1:00 PM)98% (Oct 23, 12:00 PM)30.18 "Hg (Oct 23, 12:00 PM)
Low28 °F (Oct 30, 8:00 AM)38% (Oct 29, 3:00 PM)29.23 "Hg (Oct 20, 3:00 AM)
Average43 °F85%29.74 "Hg
* Reported Oct 15 2:00 PM — Oct 30 1:00 PM, Gjøvik, Weather by CustomWeather, © 2014

Note: Actual official high and low records may vary slightly from our data, if they occured in-between our weather recording intervals... More about our weather records

Advertising

Gjøvik weather history for previous 24 hours

 ConditionsComfort  
Time TempWeatherWind HumidityBarometerVisibility
1:00 PM
Oct 30
36 °FChilly.1 mph75%30.17 "HgN/A
12:00 PM34 °FChilly.1 mph80%30.17 "HgN/A
11:00 AM33 °FChilly.2 mph84%30.18 "HgN/A
10:00 AM32 °FChilly.2 mph86%30.16 "HgN/A
9:00 AM30 °FChilly.2 mph90%30.14 "HgN/A
8:00 AM28 °FChilly.1 mph92%30.13 "HgN/A
7:00 AM29 °FChilly.1 mph90%30.11 "HgN/A
6:00 AM30 °FChilly.1 mph90%30.09 "HgN/A
5:00 AM30 °FChilly.1 mph90%30.08 "HgN/A
4:00 AM31 °FChilly.1 mph89%30.06 "HgN/A
3:00 AM31 °FChilly.2 mph86%30.05 "HgN/A
2:00 AM31 °FChilly.1 mph87%30.02 "HgN/A
1:00 AM31 °FChilly.1 mph83%30.03 "HgN/A
12:00 AM32 °FChilly.1 mph79%30.00 "HgN/A
11:00 PM
Oct 29
34 °FChilly.1 mph77%29.99 "HgN/A
10:00 PM33 °FChilly.1 mph81%29.98 "HgN/A
9:00 PM36 °FChilly.1 mph75%29.95 "HgN/A
8:00 PM36 °FChilly.2 mph71%29.93 "HgN/A
7:00 PM40 °FChilly.2 mph63%29.90 "HgN/A
6:00 PM43 °FQuite cool.2 mph56%29.86 "HgN/A
5:00 PM43 °FQuite cool.1 mph57%29.83 "HgN/A
4:00 PM46 °FCool.2 mph49%29.79 "HgN/A
3:00 PM51 °FCool.1 mph38%29.75 "HgN/A
2:00 PM50 °FCool.1 mph41%29.74 "HgN/A
Weather by CustomWeather, © 2014

See weather overviewHow to use our weather pages